Temperature
5 5 5 5 5 5 4 4 3 3 3 4 4 4 4 3 3 3 3 3 3 3 3 3 3 3 3 4 4 4 4 4 4 4 4 4 4 4
5 5 5 5 4 4 4 4 3 3 2 3 3 3 3 3 3 3 3 3 3 3 3 3 3 3 3 3 3 3 3 3 3 3 3 3 4 4
5 4 4 4 4 4 3 3 3 2 2 2 3 2 2 2 2 2 2 2 2 2 2 2 2 2 2 2 2 2 2 3 3 3 3 3 3 3
4 4 4 3 3 3 3 3 2 2 2 2 2 2 2 2 2 2 2 2 2 2 2 2 2 2 2 2 2 2 2 2 2 2 2 2 2 3
4 3 3 3 3 3 2 2 2 2 1 1 2 2 2 1 1 1 1 1 1 1 1 1 1 1 1 1 1 1 1 1 2 2 2 2 2 2
3 3 3 2 2 2 2 2 1 1 1 1 1 1 1 1 0 0 1 1 1 1 1 1 1 1 1 1 1 1 1 1 1 1 1 1 2 2
3 2 2 2 2 1 1 1 1 1 0 0 0 0 0 -0 -0 -0 -1 -0 0 0 0 1 0 0 0 0 0 1 1 0 0 1 1 1 1 1
2 2 2 1 1 1 1 1 0 0 -0 -0 -0 -0 -0 -1 -1 -1 -1 -1 -1 -1 -0 0 -0 -0 -0 -0 0 0 -0 -0 -0 -0 -0 0 0 0
2 1 1 1 1 1 0 0 -0 -0 -1 -1 -1 -1 -1 -1 -2 -2 -2 -2 -2 -2 -1 -0 -0 -0 -0 -0 -0 -1 -1 -1 -0 -0 -0 -1 -1 -0
1 1 1 0 0 -0 -0 -0 -1 -1 -1 -1 -1 -1 -2 -2 -2 -2 -2 -2 -2 -2 -2 -2 -1 -1 -1 -1 -1 -1 -1 -1 -1 -1 -1 -1 -1 -1
1 1 0 0 -0 -1 -1 -1 -1 -1 -1 -1 -2 -2 -2 -2 -2 -3 -3 -3 -3 -2 -2 -3 -2 -2 -1 -1 -1 -1 -2 -2 -2 -2 -2 -2 -2 -2
1 0 -0 -0 -1 -1 -1 -1 -1 -1 -1 -2 -2 -2 -2 -2 -2 -3 -3 -4 -4 -4 -3 -4 -3 -4 -3 -2 -2 -2 -2 -2 -2 -2 -2 -2 -2 -2
-0 -0 -0 -1 -1 -1 -1 -1 -1 -2 -2 -2 -2 -2 -2 -2 -3 -3 -3 -4 -4 -4 -4 -5 -5 -4 -5 -4 -3 -2 -2 -2 -2 -2 -3 -3 -3 -3
-1 -1 -1 -1 -1 -1 -2 -2 -2 -2 -2 -3 -3 -2 -2 -3 -3 -3 -3 -3 -4 -4 -4 -5 -5 -5 -5 -5 -4 -3 -3 -3 -3 -3 -3 -3 -3 -3
-1 -1 -1 -2 -2 -2 -2 -2 -2 -3 -3 -3 -3 -3 -3 -3 -3 -3 -3 -4 -4 -4 -4 -5 -5 -5 -5 -5 -5 -4 -4 -3 -3 -4 -4 -4 -3 -3
-2 -2 -2 -2 -2 -2 -2 -2 -3 -3 -3 -3 -3 -3 -3 -3 -4 -4 -4 -4 -4 -4 -4 -5 -5 -5 -5 -5 -5 -5 -4 -5 -4 -4 -4 -4 -4 -4
-2 -2 -2 -2 -3 -3 -3 -3 -3 -3 -3 -3 -4 -4 -4 -4 -4 -4 -5 -5 -5 -5 -5 -5 -5 -5 -5 -5 -5 -5 -5 -5 -5 -5 -5 -4 -4 -4
-3 -3 -3 -3 -3 -3 -3 -3 -3 -3 -4 -4 -4 -4 -4 -4 -5 -5 -5 -5 -5 -5 -5 -5 -5 -5 -5 -5 -5 -5 -5 -5 -5 -5 -5 -5 -4 -4
-3 -3 -3 -3 -3 -3 -4 -4 -4 -4 -4 -4 -4 -5 -5 -5 -5 -5 -6 -6 -6 -6 -6 -6 -6 -6 -6 -6 -6 -6 -6 -6 -6 -5 -5 -5 -5 -5
-3 -3 -3 -4 -4 -4 -4 -4 -4 -4 -4 -4 -5 -5 -5 -5 -6 -6 -6 -6 -6 -6 -6 -6 -6 -6 -7 -7 -6 -6 -6 -6 -6 -6 -6 -5 -5 -5
-4 -4 -4 -4 -4 -4 -4 -4 -4 -4 -5 -5 -5 -5 -5 -6 -6 -6 -6 -6 -6 -6 -6 -6 -6 -6 -7 -7 -7 -6 -6 -6 -6 -7 -6 -6 -6 -5
-4 -4 -4 -4 -4 -4 -4 -4 -5 -5 -5 -5 -5 -5 -5 -6 -6 -6 -6 -6 -7 -7 -7 -6 -6 -7 -7 -7 -7 -7 -6 -6 -6 -6 -6 -7 -7 -7
-4 -4 -4 -4 -5 -5 -5 -5 -5 -5 -5 -5 -5 -5 -6 -6 -6 -6 -6 -7 -7 -7 -7 -7 -7 -7 -7 -7 -7 -7 -7 -6 -6 -6 -6 -6 -6 -6
Wind_Speed
3 3 2 2 2 2 2 2 3 5 5 4 2 2 4 5 7 7 8 11 12 12 13 14 14 14 14 14 14 14 14 14 14 14 14 13 13 13
3 3 3 3 2 2 2 2 3 4 5 3 3 4 4 6 8 8 9 11 12 13 14 14 13 14 14 14 14 14 14 14 14 14 13 13 13 13
3 3 4 3 3 3 2 2 3 3 6 6 4 3 3 4 6 8 9 9 10 13 14 14 14 14 14 14 14 14 14 13 13 13 12 12 13 13
4 4 5 3 4 3 3 3 4 4 4 7 5 4 4 4 5 6 7 8 9 12 13 14 14 13 13 13 14 14 13 12 12 12 13 13 13 13
5 5 5 4 5 4 4 4 4 4 4 5 6 4 4 4 4 5 5 6 8 11 12 13 13 13 13 13 13 12 11 11 11 12 12 13 13 14
5 5 5 6 6 6 5 5 4 4 4 4 5 5 4 4 3 4 5 4 6 8 9 11 13 13 12 12 11 11 11 11 11 11 12 12 13 14
5 5 5 6 7 6 5 5 5 4 4 4 5 5 4 4 4 3 5 6 6 4 5 6 7 7 8 9 10 10 11 11 11 11 12 13 13 14
5 5 5 6 8 9 10 9 8 6 5 5 5 6 6 5 4 4 4 5 6 3 5 7 5 5 5 7 10 11 10 10 11 12 12 13 14 14
5 5 5 5 6 5 8 10 10 11 10 6 7 8 6 5 5 5 5 5 7 5 5 7 5 5 6 9 11 10 10 10 11 11 12 13 13 13
6 6 6 6 6 5 5 6 6 7 9 7 7 8 6 5 5 5 5 5 6 5 3 5 5 5 6 7 10 9 10 10 11 12 12 12 13 13
5 5 6 6 9 9 6 6 7 7 9 11 11 10 10 9 6 3 3 4 6 5 2 2 3 5 5 4 6 8 9 10 11 11 11 12 13 13
4 5 8 8 10 10 6 6 8 7 5 5 6 7 6 7 7 5 4 4 4 4 2 2 3 3 4 3 3 5 7 9 11 11 12 13 13 9
4 4 5 10 11 11 9 7 9 7 4 5 5 4 3 3 3 4 4 4 5 5 3 2 2 2 3 4 4 4 4 5 7 8 11 12 13 10
5 5 5 9 10 11 9 9 11 8 3 3 4 4 4 3 3 3 5 6 7 7 6 4 3 4 4 5 5 4 4 4 5 5 7 11 11 12
5 7 8 9 8 7 9 9 7 4 3 4 5 5 3 3 3 2 3 4 5 7 7 7 5 5 5 5 5 5 5 4 4 4 5 6 6 6
5 6 8 8 6 6 6 5 4 4 4 5 4 3 2 2 2 2 2 2 3 4 4 6 6 5 5 6 6 7 6 4 4 5 6 7 6 6
4 2 2 2 3 3 3 3 3 3 4 3 3 3 3 2 2 2 2 2 3 4 4 3 4 5 6 6 5 6 6 6 6 6 6 8 7 6
5 3 3 4 4 4 4 4 3 3 3 3 3 3 3 3 3 2 2 3 4 4 4 3 3 3 3 3 6 6 5 5 6 6 5 7 8 6
5 4 4 4 4 4 4 4 4 3 3 3 3 3 3 3 2 3 3 3 4 4 4 3 2 2 4 5 4 5 4 5 6 6 5 6 7 8
4 5 5 4 4 4 4 4 4 3 3 3 3 3 3 3 3 3 3 3 4 4 4 3 3 3 4 5 4 5 6 6 5 6 6 6 7 9
4 5 5 5 4 4 4 4 4 4 3 3 3 3 3 3 3 3 3 5 4 4 4 5 4 5 3 2 4 5 4 6 7 6 6 6 6 5
5 5 5 5 4 4 4 4 3 3 3 3 3 3 3 3 3 4 3 3 4 4 5 4 4 2 2 3 5 6 6 6 7 9 8 7 4 4
5 5 4 4 4 4 4 4 4 3 3 3 3 3 3 3 3 3 3 3 4 4 4 4 3 2 3 4 5 5 6 6 5 5 5 8 9 11
Wind_Direction
229 231 240 249 242 237 222 218 235 275 280 265 268 281 297 287 295 300 300 302 308 308 309 310 310 310 310 310 312 311 311 311 309 308 308 307 306 307
229 225 241 247 245 241 233 224 218 240 267 272 271 283 295 301 297 299 294 298 302 305 307 307 307 309 307 308 309 308 307 307 308 309 308 307 307 307
244 235 242 242 239 242 237 230 231 229 260 280 279 283 279 284 299 298 292 289 292 300 303 303 304 305 304 305 306 305 305 306 306 307 310 310 309 307
242 240 246 246 241 241 235 237 241 237 251 276 286 284 277 275 283 289 298 294 291 296 301 302 302 301 303 305 305 304 306 306 307 308 308 308 307 307
236 237 244 238 246 249 242 243 246 255 250 266 278 278 281 283 291 295 291 292 297 299 303 302 301 301 303 306 306 305 307 307 306 306 308 308 308 307
240 239 241 235 238 241 247 244 247 253 256 264 276 280 277 279 287 296 303 301 300 302 301 301 301 301 300 304 305 305 305 305 304 306 308 308 308 306
247 244 244 246 249 250 254 244 239 248 257 266 274 282 281 285 285 287 294 304 298 289 303 303 302 298 298 303 302 302 304 304 305 307 307 308 308 307
251 254 254 255 260 265 266 261 250 246 249 257 267 269 272 275 282 282 292 308 304 302 314 302 296 290 290 296 298 303 305 303 306 308 308 308 307 306
241 248 264 266 268 262 268 269 265 260 256 255 257 259 262 258 264 271 270 277 280 288 308 295 295 287 289 298 297 298 304 311 312 312 311 311 310 308
240 239 248 258 260 263 260 263 263 259 257 254 251 257 258 250 243 258 265 280 283 280 269 279 292 290 298 295 293 298 307 313 316 316 314 316 318 316
250 247 249 254 265 270 266 264 271 270 269 263 264 265 267 267 262 256 267 285 296 292 258 267 293 304 296 287 295 307 313 314 316 317 317 318 318 316
261 258 261 263 269 273 264 257 264 267 266 271 269 270 267 263 258 235 229 253 279 284 248 276 285 318 307 287 295 310 312 311 314 314 316 317 317 316
262 265 263 270 273 274 270 257 261 268 258 255 259 260 259 255 251 244 229 231 248 262 255 258 270 275 269 293 298 294 292 303 309 307 312 315 316 315
259 263 267 276 277 279 276 266 267 270 254 254 258 259 259 261 258 257 255 248 247 251 249 242 248 254 270 282 285 293 299 297 296 300 305 313 314 312
260 265 273 278 282 283 278 269 267 251 239 252 257 259 255 251 257 268 270 266 266 261 252 244 242 253 254 263 275 288 302 298 289 293 301 303 302 305
271 269 274 279 282 284 287 280 260 241 237 246 260 260 253 248 253 254 259 274 282 283 264 251 246 245 257 261 265 277 281 280 295 302 302 299 293 286
276 271 266 279 282 284 287 281 267 252 246 243 245 255 254 254 262 259 249 253 257 274 288 285 270 262 252 252 263 267 274 280 282 295 303 302 296 284
273 263 261 260 263 268 275 276 267 254 247 240 241 245 249 252 263 266 256 250 262 273 278 283 300 309 301 275 239 255 270 277 289 294 292 294 296 293
263 256 255 259 261 262 265 267 266 255 243 238 244 246 248 251 257 261 260 263 266 272 278 278 276 281 294 298 283 237 256 285 295 297 291 285 289 296
252 254 256 256 256 256 261 265 262 253 243 245 249 245 239 243 248 254 256 260 267 275 281 274 258 254 259 271 281 283 265 270 282 290 294 294 288 291
257 258 256 254 253 252 256 256 250 246 243 242 246 244 238 240 245 250 256 267 270 267 274 277 271 280 269 276 287 288 280 271 274 276 288 299 301 302
259 260 259 255 251 250 251 250 246 242 238 241 250 251 242 240 245 248 254 262 264 263 269 278 289 288 264 265 278 289 298 303 298 292 281 272 275 285
258 259 261 257 252 249 247 243 240 241 237 239 246 249 244 243 245 247 252 258 266 270 277 286 295 282 267 262 276 287 296 306 311 315 306 302 293 283
Height
1489 1489 1489 1488 1488 1487 1487 1486 1486 1482 1479 1479 1479 1478 1478 1477 1475 1474 1472 1471 1469 1467 1465 1463 1461 1459 1457 1455 1453 1452 1450 1449 1447 1446 1444 1443 1442 1441
1485 1485 1485 1484 1484 1483 1483 1482 1481 1480 1477 1474 1474 1474 1473 1472 1471 1469 1468 1466 1464 1462 1460 1458 1456 1454 1452 1450 1448 1447 1445 1444 1442 1441 1439 1438 1437 1436
1481 1481 1480 1480 1479 1478 1478 1477 1476 1475 1473 1470 1470 1469 1468 1467 1465 1464 1463 1461 1459 1457 1455 1453 1451 1448 1447 1445 1443 1441 1440 1438 1437 1435 1434 1433 1432 1431
1477 1476 1476 1475 1474 1474 1473 1472 1471 1471 1469 1466 1465 1464 1463 1462 1460 1459 1458 1456 1454 1452 1450 1448 1446 1443 1441 1439 1438 1436 1435 1433 1431 1430 1429 1427 1426 1425
1472 1471 1471 1470 1469 1468 1468 1467 1466 1466 1464 1462 1460 1459 1458 1457 1455 1454 1452 1451 1449 1447 1445 1442 1441 1438 1436 1434 1432 1431 1429 1427 1426 1425 1423 1422 1421 1419
1467 1467 1466 1465 1464 1463 1463 1462 1461 1460 1459 1457 1455 1454 1453 1452 1450 1448 1446 1445 1444 1442 1439 1437 1436 1434 1431 1429 1427 1425 1424 1422 1421 1419 1418 1417 1415 1414
1462 1461 1460 1459 1459 1458 1457 1457 1456 1455 1454 1452 1451 1449 1448 1446 1445 1444 1442 1440 1438 1436 1434 1432 1430 1428 1426 1424 1422 1420 1418 1417 1415 1414 1413 1411 1410 1408
1457 1456 1455 1454 1453 1453 1452 1452 1451 1450 1448 1447 1446 1444 1443 1442 1441 1439 1437 1435 1432 1432 1429 1426 1425 1422 1421 1419 1417 1415 1413 1412 1410 1409 1408 1406 1404 1403
1451 1450 1449 1449 1448 1447 1446 1446 1445 1444 1444 1443 1441 1439 1438 1437 1436 1434 1433 1431 1429 1427 1424 1420 1420 1417 1416 1414 1412 1411 1409 1407 1405 1404 1402 1401 1399 1397
1446 1445 1444 1443 1442 1442 1441 1439 1438 1438 1438 1437 1436 1435 1434 1433 1432 1431 1429 1426 1424 1423 1421 1416 1414 1412 1411 1409 1407 1406 1404 1402 1401 1399 1397 1396 1394 1392
1441 1440 1439 1438 1437 1436 1435 1434 1432 1432 1432 1431 1430 1429 1428 1427 1427 1425 1423 1421 1418 1417 1416 1413 1410 1407 1405 1404 1403 1401 1400 1398 1396 1394 1393 1391 1388 1386
1436 1435 1434 1433 1432 1431 1430 1428 1427 1426 1425 1425 1424 1423 1423 1422 1421 1420 1419 1417 1414 1412 1410 1409 1407 1404 1401 1398 1398 1397 1395 1394 1392 1390 1388 1386 1384 1381
1430 1429 1429 1428 1427 1425 1424 1423 1421 1421 1420 1419 1418 1417 1417 1416 1415 1415 1414 1412 1410 1408 1408 1406 1403 1401 1400 1395 1393 1393 1391 1389 1387 1385 1383 1381 1379 1377
1425 1425 1424 1423 1421 1420 1418 1417 1416 1415 1414 1413 1413 1412 1411 1411 1410 1409 1409 1408 1406 1405 1404 1402 1400 1398 1395 1392 1389 1387 1387 1385 1383 1380 1378 1376 1374 1372
1421 1420 1419 1418 1416 1414 1413 1412 1411 1410 1409 1408 1407 1407 1407 1406 1405 1404 1403 1402 1401 1400 1399 1398 1396 1394 1392 1389 1386 1383 1381 1380 1379 1376 1374 1371 1369 1367
1416 1415 1414 1412 1411 1409 1408 1407 1406 1405 1404 1404 1403 1402 1402 1401 1400 1399 1398 1397 1396 1394 1394 1393 1392 1390 1387 1385 1383 1380 1379 1376 1374 1372 1369 1367 1365 1363
1412 1410 1408 1407 1406 1404 1403 1402 1402 1401 1400 1399 1398 1398 1397 1396 1395 1395 1394 1393 1391 1389 1388 1388 1387 1386 1383 1381 1379 1376 1375 1373 1371 1368 1365 1362 1360 1359
1407 1405 1403 1402 1401 1400 1399 1398 1397 1396 1395 1395 1394 1393 1392 1392 1391 1390 1390 1389 1387 1386 1385 1383 1382 1380 1379 1377 1376 1373 1371 1369 1367 1364 1362 1358 1355 1354
1402 1400 1399 1398 1397 1396 1395 1394 1393 1392 1392 1391 1390 1389 1388 1388 1387 1386 1386 1385 1384 1382 1381 1380 1379 1377 1374 1372 1371 1370 1368 1365 1362 1360 1358 1355 1352 1349
1397 1396 1394 1394 1393 1392 1391 1390 1389 1388 1388 1387 1386 1385 1385 1384 1383 1383 1382 1381 1380 1379 1378 1377 1376 1374 1372 1370 1367 1365 1365 1362 1359 1356 1354 1351 1349 1347
1392 1391 1390 1389 1388 1388 1387 1386 1385 1384 1384 1383 1382 1382 1381 1381 1380 1379 1379 1378 1377 1375 1374 1373 1372 1372 1370 1368 1365 1362 1361 1359 1356 1354 1351 1348 1345 1342
1387 1387 1386 1385 1384 1383 1382 1382 1381 1381 1380 1380 1379 1379 1378 1377 1377 1376 1375 1374 1373 1372 1371 1370 1369 1368 1367 1365 1362 1359 1357 1355 1354 1352 1349 1347 1344 1340
1383 1382 1381 1380 1380 1379 1378 1378 1377 1377 1377 1376 1376 1375 1375 1374 1373 1372 1372 1371 1370 1369 1368 1367 1366 1365 1363 1362 1360 1357 1355 1352 1350 1348 1346 1344 1342 1339